Home   Weather   Sunrise   Past weeks

Flag for USA Past Weather in Sunrise, Florida, USA — Yesterday and Last 2 Weeks

72 °F

Mostly cloudy.

Feels Like: 76 °F
Forecast: 69 / 80 °F
Wind: 5 mph from North

Location: Fort Lauderdale Executive Airport

Current Time: Oct 25, 2016 at 2:40:01 AM

Latest Report: Oct 25, 2016 at 1:53 AM

Visibility: 10 mi

Pressure: 30.12 "Hg

Humidity: 57%

Dew Point: 56 °F

Location of SunriseLocation

Past Weather in Sunrise — Graph


Sunrise Temperature Yesterday

Maximum temperature yesterday: 82 °F (at 12:53 PM)
Minimum temperature yesterday: 72 °F (at 6:53 AM)
Average temperature yesterday: 76 °F

High & Low Weather Summary for the Past Weeks

High86 °F (Oct 11, 1:53 PM)94% (Oct 15, 5:00 AM)30.19 "Hg (Oct 15, 5:00 AM)
Low63 °F (Oct 23, 5:53 AM)32% (Oct 22, 5:53 PM)29.78 "Hg (Oct 21, 4:53 PM)
Average78 °F66%29.99 "Hg
* Reported Oct 10 12:53 AM — Oct 25 12:53 AM, Sunrise, Weather by CustomWeather, © 2016

Note: Actual official high and low records may vary slightly from our data, if they occured in-between our weather recording intervals... More about our weather records


Sunrise Weather History for the Previous 24 Hours

Scroll right to see more
Time TempWeatherWind HumidityBarometerVisibility
12:53 AM
Tue, Oct 25
73 °FPassing clouds.5 mph53%30.13 "Hg10 mi
11:53 PM
Mon, Oct 24
73 °FPassing clouds.6 mph55%30.14 "Hg10 mi
10:53 PM74 °FPassing clouds.5 mph53%30.16 "Hg10 mi
9:53 PM75 °FPassing clouds.6 mph52%30.15 "Hg10 mi
8:53 PM75 °FPassing clouds.12 mph52%30.14 "Hg10 mi
7:53 PM75 °FClear.7 mph54%30.13 "Hg10 mi
6:53 PM76 °FPassing clouds.8 mph54%30.12 "Hg10 mi
5:53 PM78 °FPartly sunny.12 mph50%30.11 "Hg10 mi
4:53 PM78 °FOvercast.12 mph48%30.11 "Hg10 mi
3:53 PM79 °FPartly sunny.13 mph48%30.11 "Hg10 mi
2:53 PM79 °FPartly sunny.13 mph47%30.12 "Hg10 mi
1:53 PM80 °FPartly sunny.13 mph42%30.14 "Hg10 mi
12:53 PM82 °FPartly sunny.10 mph43%30.16 "Hg10 mi
11:53 AM81 °FPartly sunny.14 mph45%30.18 "Hg10 mi
10:53 AM78 °FPartly sunny.3 mph54%30.19 "Hg10 mi
9:53 AM75 °FOvercast.7 mph58%30.19 "Hg10 mi
8:53 AM73 °FOvercast.5 mph62%30.17 "Hg10 mi
7:53 AM72 °FOvercast.3 mph61%30.16 "Hg10 mi
6:53 AM72 °FOvercast.3 mph59%30.15 "Hg10 mi
5:53 AM74 °FPassing clouds.3 mph52%30.14 "Hg10 mi
4:53 AM74 °FPassing clouds.7 mph50%30.14 "Hg10 mi
3:53 AM73 °FPassing clouds.5 mph53%30.14 "Hg10 mi
2:53 AM74 °FPassing clouds.9 mph50%30.14 "Hg10 mi
Weather by CustomWeather, © 2016

See weather overviewHow to use our weather pages